This is the latest recevied weather packets stored in our database for station/object XQ6AK-15. If no packets are shown the sender has not sent any weather packets the latest 10 day(s).
| Time | Temp. | Humidity | Pressure | Rain* | Wind** | Luminosity | Snow |
|---|---|---|---|---|---|---|---|
| 1787920869 | 7.22° C | 99% | 1006.9 hPa | 0 mm | - | 50 W/m² | - |
| 1787920569 | 7.22° C | 99% | 1006.7 hPa | 0 mm | - | 35 W/m² | - |
| 1787920263 | 7.22° C | 99% | 1006.9 hPa | 0 mm | - | 25 W/m² | - |
| 1787919955 | 7.22° C | 99% | 1006.9 hPa | 0 mm | - | 23 W/m² | - |
| 1787919654 | 7.22° C | 99% | 1006.8 hPa | 0 mm | - | 20 W/m² | - |
| 1787919345 | 7.22° C | 99% | 1006.9 hPa | 0 mm | - | 13 W/m² | - |
| 1787919040 | 7.22° C | 99% | 1006.7 hPa | 0 mm | - | 17 W/m² | - |
| 1787918729 | 7.22° C | 99% | 1006.4 hPa | 0 mm | - | 16 W/m² | - |
| 1787918428 | 6.67° C | 99% | 1006.6 hPa | 0 mm | - | 12 W/m² | - |
| 1787918121 | 6.67° C | 99% | 1006.4 hPa | 0 mm | - | 9 W/m² | - |
| 1787917816 | 6.67° C | 99% | 1006.4 hPa | 0 mm | - | 10 W/m² | - |
| 1787917513 | 6.67° C | 99% | 1006.5 hPa | 0 mm | - | 8 W/m² | - |
| 1787917208 | 6.67° C | 99% | 1006.5 hPa | 0 mm | - | 7 W/m² | - |
| 1787916908 | 6.67° C | 99% | 1006.4 hPa | 0 mm | - | 5 W/m² | - |
| 1787916602 | 6.67° C | 99% | 1006.5 hPa | 0 mm | - | 3 W/m² | - |
| 1787916296 | 6.67° C | 99% | 1006.3 hPa | 0 mm | - | 1 W/m² | - |
| 1787915991 | 6.67° C | 99% | 1006.4 hPa | 0 mm | - | 0 W/m² | - |
| 1787915687 | 6.67° C | 99% | 1006.2 hPa | 0 mm | - | 0 W/m² | - |
| 1787915382 | 6.67° C | 99% | 1006.5 hPa | 0 mm | - | 0 W/m² | - |
| 1787915081 | 6.67° C | 99% | 1006.3 hPa | 0 mm | - | 0 W/m² | - |
| 1787914780 | 6.67° C | 99% | 1006.2 hPa | 0 mm | - | 0 W/m² | - |
| 1787914475 | 6.67° C | 99% | 1006.3 hPa | 0 mm | - | 0 W/m² | - |
| 1787914170 | 6.67° C | 99% | 1006.4 hPa | 0 mm | - | 0 W/m² | - |
| 1787913870 | 6.67° C | 99% | 1006.3 hPa | 0 mm | - | 0 W/m² | - |
| 1787913564 | 6.67° C | 99% | 1006.4 hPa | 0 mm | - | 0 W/m² | - |
* Rain latest hour (hover to see other rain measurements)
** Current wind speed in m/s (hover to see current wind gust speed)